TimeCST,TemperatureF,Dew PointF,Humidity,Sea Level PressureIn,VisibilityMPH,Wind Direction,Wind SpeedMPH,Gust SpeedMPH,PrecipitationIn,Events,Conditions,WindDirDegrees,DateUTC
12:15 AM,41.0,33.8,76,29.32,10.0,West,13.8,-,N/A,,Mostly Cloudy,280,2012-12-03 06:15:00
12:35 AM,39.2,35.6,87,29.31,10.0,WNW,12.7,-,N/A,Rain,Light Rain,300,2012-12-03 06:35:00
12:55 AM,37.4,37.4,100,29.33,10.0,WNW,13.8,-,N/A,Rain,Light Rain,290,2012-12-03 06:55:00
1:15 AM,37.4,37.4,100,29.36,6.0,West,10.4,-,0.01,Rain,Rain,270,2012-12-03 07:15:00
1:35 AM,39.2,39.2,100,29.37,5.0,West,12.7,-,0.05,Rain,Light Rain,260,2012-12-03 07:35:00
1:55 AM,37.4,37.4,100,29.38,9.0,WSW,12.7,-,0.07,Rain,Light Rain,250,2012-12-03 07:55:00
2:15 AM,37.4,37.4,100,29.39,10.0,WSW,12.7,-,N/A,,Mostly Cloudy,250,2012-12-03 08:15:00
2:35 AM,37.4,37.4,100,29.40,10.0,West,17.3,-,N/A,,Mostly Cloudy,260,2012-12-03 08:35:00
2:55 AM,39.2,37.4,93,29.39,10.0,West,18.4,21.9,N/A,,Overcast,260,2012-12-03 08:55:00
3:15 AM,37.4,35.6,93,29.41,10.0,West,18.4,25.3,N/A,,Mostly Cloudy,260,2012-12-03 09:15:00
3:35 AM,37.4,35.6,93,29.41,10.0,West,20.7,27.6,N/A,,Partly Cloudy,260,2012-12-03 09:35:00
3:55 AM,37.4,33.8,87,29.44,10.0,West,19.6,29.9,N/A,,Clear,270,2012-12-03 09:55:00
4:15 AM,37.4,32.0,81,29.46,10.0,West,18.4,24.2,N/A,,Scattered Clouds,260,2012-12-03 10:15:00
4:35 AM,37.4,32.0,81,29.47,10.0,West,17.3,21.9,N/A,,Partly Cloudy,260,2012-12-03 10:35:00
4:55 AM,37.4,32.0,81,29.47,10.0,West,16.1,-,N/A,,Clear,260,2012-12-03 10:55:00
5:15 AM,37.4,32.0,81,29.48,10.0,West,19.6,25.3,N/A,,Clear,270,2012-12-03 11:15:00
5:35 AM,35.6,32.0,87,29.48,10.0,West,18.4,-,N/A,,Clear,280,2012-12-03 11:35:00
5:55 AM,35.6,32.0,87,29.50,10.0,West,15.0,-,N/A,,Clear,280,2012-12-03 11:55:00
6:15 AM,33.8,32.0,93,29.52,10.0,WNW,12.7,-,N/A,,Clear,290,2012-12-03 12:15:00
6:35 AM,33.8,32.0,93,29.53,10.0,NW,12.7,-,N/A,,Clear,310,2012-12-03 12:35:00
6:55 AM,32.0,30.2,93,29.55,10.0,NNW,10.4,-,N/A,,Clear,330,2012-12-03 12:55:00
7:15 AM,30.2,26.6,86,29.56,10.0,NW,20.7,29.9,N/A,,Clear,310,2012-12-03 13:15:00
7:35 AM,28.4,24.8,86,29.57,10.0,WNW,18.4,26.5,N/A,,Clear,300,2012-12-03 13:35:00
7:55 AM,28.4,24.8,86,29.58,10.0,WNW,19.6,26.5,N/A,,Partly Cloudy,300,2012-12-03 13:55:00
8:15 AM,26.6,23.0,86,29.59,10.0,WNW,28.8,35.7,N/A,,Mostly Cloudy,290,2012-12-03 14:15:00
8:35 AM,26.6,23.0,86,29.61,10.0,WNW,25.3,34.5,N/A,,Scattered Clouds,290,2012-12-03 14:35:00
8:55 AM,24.8,19.4,80,29.62,10.0,WNW,27.6,38.0,N/A,,Overcast,300,2012-12-03 14:55:00
9:15 AM,23.0,17.6,80,29.62,10.0,WNW,26.5,35.7,N/A,,Mostly Cloudy,300,2012-12-03 15:15:00
9:35 AM,23.0,15.8,74,29.65,10.0,WNW,25.3,35.7,N/A,,Scattered Clouds,290,2012-12-03 15:35:00
9:55 AM,21.2,15.8,80,29.67,10.0,WNW,24.2,28.8,N/A,,Mostly Cloudy,290,2012-12-03 15:55:00
10:15 AM,21.2,15.8,80,29.68,10.0,WNW,17.3,26.5,N/A,,Overcast,300,2012-12-03 16:15:00
10:35 AM,21.2,15.8,80,29.69,10.0,WNW,23.0,28.8,N/A,,Overcast,300,2012-12-03 16:35:00
10:55 AM,21.2,14.0,74,29.70,10.0,NW,21.9,29.9,N/A,,Overcast,310,2012-12-03 16:55:00
11:15 AM,21.2,14.0,74,29.71,10.0,WNW,21.9,26.5,N/A,,Overcast,290,2012-12-03 17:15:00
11:35 AM,19.4,14.0,80,29.71,10.0,NW,24.2,-,N/A,,Overcast,310,2012-12-03 17:35:00
11:55 AM,19.4,14.0,80,29.71,10.0,WNW,26.5,32.2,N/A,,Overcast,290,2012-12-03 17:55:00
12:15 PM,19.4,14.0,80,29.72,10.0,NW,23.0,33.4,N/A,,Overcast,310,2012-12-03 18:15:00
12:35 PM,19.4,12.2,74,29.73,10.0,NW,24.2,29.9,N/A,,Mostly Cloudy,310,2012-12-03 18:35:00
1:15 PM,19.4,12.2,74,29.74,10.0,NW,23.0,31.1,N/A,,Overcast,310,2012-12-03 19:15:00
1:35 PM,19.4,10.4,68,29.76,10.0,NW,23.0,28.8,N/A,,Overcast,310,2012-12-03 19:35:00
1:55 PM,19.4,12.2,74,29.77,10.0,WNW,17.3,23.0,N/A,,Overcast,300,2012-12-03 19:55:00
2:15 PM,19.4,12.2,74,29.78,10.0,NW,18.4,26.5,N/A,,Overcast,310,2012-12-03 20:15:00
2:35 PM,19.4,10.4,68,29.78,10.0,NW,20.7,26.5,N/A,,Overcast,310,2012-12-03 20:35:00
2:55 PM,17.6,10.4,73,29.79,10.0,NW,21.9,27.6,N/A,,Overcast,320,2012-12-03 20:55:00
3:15 PM,17.6,10.4,73,29.79,10.0,NW,18.4,24.2,N/A,,Scattered Clouds,320,2012-12-03 21:15:00
3:35 PM,17.6,10.4,73,29.80,10.0,NW,17.3,-,N/A,,Clear,310,2012-12-03 21:35:00
3:55 PM,17.6,10.4,73,29.81,10.0,NW,16.1,20.7,N/A,,Clear,310,2012-12-03 21:55:00
4:15 PM,17.6,10.4,73,29.82,10.0,WNW,12.7,-,N/A,,Clear,300,2012-12-03 22:15:00
4:35 PM,17.6,10.4,73,29.84,10.0,NW,11.5,-,N/A,,Clear,310,2012-12-03 22:35:00
4:55 PM,15.8,10.4,79,29.85,10.0,NW,9.2,-,N/A,,Clear,310,2012-12-03 22:55:00
5:15 PM,15.8,10.4,79,29.86,10.0,NW,8.1,-,N/A,,Clear,320,2012-12-03 23:15:00
5:35 PM,15.8,10.4,79,29.87,10.0,NW,9.2,-,N/A,,Mostly Cloudy,320,2012-12-03 23:35:00
5:55 PM,15.8,10.4,79,29.87,10.0,NW,8.1,-,N/A,,Overcast,310,2012-12-03 23:55:00
6:15 PM,17.6,10.4,73,29.88,10.0,NW,10.4,-,N/A,,Overcast,310,2012-12-04 00:15:00
6:35 PM,17.6,10.4,73,29.89,10.0,NW,12.7,-,N/A,,Overcast,310,2012-12-04 00:35:00
6:55 PM,17.6,10.4,73,29.90,10.0,NW,11.5,-,N/A,,Overcast,310,2012-12-04 00:55:00
7:15 PM,17.6,10.4,73,29.92,10.0,NW,10.4,-,N/A,,Overcast,320,2012-12-04 01:15:00
7:35 PM,15.8,10.4,79,29.93,10.0,NNE,9.2,-,N/A,,Overcast,20,2012-12-04 01:35:00
7:55 PM,14.0,10.4,86,29.94,10.0,North,9.2,-,N/A,,Overcast,10,2012-12-04 01:55:00
8:15 PM,14.0,10.4,86,29.95,10.0,NNW,11.5,-,N/A,,Overcast,340,2012-12-04 02:15:00
8:35 PM,14.0,8.6,79,29.95,10.0,NNW,10.4,-,N/A,,Overcast,340,2012-12-04 02:35:00
8:55 PM,14.0,8.6,79,29.96,10.0,NNW,13.8,-,N/A,,Overcast,330,2012-12-04 02:55:00
9:15 PM,14.0,8.6,79,29.97,10.0,NW,8.1,-,N/A,,Mostly Cloudy,320,2012-12-04 03:15:00
9:35 PM,14.0,8.6,79,29.97,10.0,NNW,10.4,-,N/A,,Mostly Cloudy,340,2012-12-04 03:35:00
9:55 PM,12.2,8.6,85,29.97,10.0,NNW,8.1,-,N/A,,Mostly Cloudy,330,2012-12-04 03:55:00
10:15 PM,14.0,8.6,79,29.99,10.0,NNW,9.2,-,N/A,,Overcast,330,2012-12-04 04:15:00
10:35 PM,12.2,8.6,85,30.00,10.0,NNW,8.1,-,N/A,,Overcast,330,2012-12-04 04:35:00
10:55 PM,12.2,8.6,85,30.00,10.0,NNW,12.7,-,N/A,,Overcast,330,2012-12-04 04:55:00
11:15 PM,12.2,6.8,79,30.01,10.0,NW,10.4,-,N/A,,Overcast,320,2012-12-04 05:15:00
11:35 PM,12.2,8.6,85,30.02,10.0,NW,10.4,-,N/A,,Overcast,320,2012-12-04 05:35:00
11:55 PM,12.2,6.8,79,30.03,10.0,NW,12.7,-,N/A,,Overcast,310,2012-12-04 05:55:00